Location: Ferchesar
(52.6477°N, 12.4298°E)
Time: 08:36:19
(UTC+01:00)

S-56A Canister/Altair - Pass Details

Date: 07 December 2021
Orbit: 633 x 2499 km, 38.9° (Epoch: 19 January)

Event Time Altitude Azimuth Distance (km) Brightness Sun altitude
Rises 00:34:29 0° 241° (WSW) 5,208 - -59.3°
Reaches altitude 10° 00:38:51 10° 232° (SW) 3,885 - -59.1°
Maximum altitude 00:46:36 29° 179° (S) 2,149 - -58.7°
Drops below altitude 10° 00:52:14 10° 122° (ESE) 2,764 - -58.4°
Sets 00:54:48 0° 110° (ESE) 3,503 - -58.3°
